Location: Chiroubles
(46.1812°N, 4.6660°E)
Time: 19:22:18
(UTC+00:00)

deb Kosmos-1763 - Pass Details

Date: 15 August 2020
Orbit: 463 x 478 km, 74.0° (Epoch: 24 September)

Event Time Altitude Azimuth Distance (km) Brightness Sun altitude
Rises 19:19:28 0° 193° (SSW) 2,504 7.5 -5.5°
Reaches altitude 10° 19:21:34 10° 190° (S) 1,635 6.6 -5.9°
Maximum altitude 19:25:08 65° 109° (ESE) 529 4.0 -6.4°
Drops below altitude 10° 19:28:46 10° 27° (NNE) 1,659 6.8 -7.0°
Sets 19:30:54 0° 25° (NNE) 2,545 7.8 -7.3°
